Location: Yamada Observatory
(36.7980°N, 119.2990°W)
Time: 05:07:29
(UTC-07:00)

Tiangong 2 - Visible Passes

Search period start: 26 April 2018 00:00
Search period end: 06 May 2018 00:00
Orbit: 381 x 388 km, 42.8° (Epoch: 25 April)

Date Brightness Start Highest point End Pass type
(mag) Time Alt. Az. Time Alt. Az. Time Alt. Az.
01 May 3.8 05:36:14 10° S 05:37:46 13° SE 05:39:18 10° ESE visible
03 May 2.9 05:12:25 10° SSW 05:15:02 24° SE 05:17:40 10° E visible
04 May 3.6 04:15:24 13° SE 04:15:36 13° SE 04:17:05 10° ESE visible
05 May 1.7 04:50:42 23° SSW 04:52:20 45° SSE 04:55:23 10° ENE visible
